Location: Schommer Observatory
(40.5200°N, 74.4500°W)
Time: 12:13:21
(UTC-04:00)

ISS - Pass Details

Date: 07 October 2017
Orbit: 401 x 408 km, 51.6° (Epoch: 21 October)

Event Time Altitude Azimuth Distance (km) Brightness Sun altitude
Rises 19:05:32 0° 305° (NW) 2,325 1.0 -7.6°
Reaches altitude 10° 19:08:41 10° 338° (NNW) 1,467 -0.7 -8.2°
Maximum altitude 19:10:04 12° 3° (N) 1,347 -1.2 -8.5°
Drops below altitude 10° 19:11:28 10° 28° (NNE) 1,468 -1.3 -8.7°
Enters shadow 19:12:50 - 47° (NE) 1,778 -1.0 -9.0°
